DW8816 Weather Reports


time (UTC)temp
C
wind
direction
speed
KPH
gust
KPH
rain 1hr
cm
rain 24hr
cm
rain mn
cm
humidity
%
barometer
mb
20260507222003 11 0 0.0 1.6 0.00 0.00 0.00 78 1015.9
20260507220004 11 109 0.0 1.6 0.00 0.00 0.00 78 1015.8
20260507215004 11 109 0.0 4.8 0.00 0.00 0.00 77 1015.8
20260507214004 11 107 1.6 6.4 0.00 0.00 0.00 78 1015.8
20260507213003 11 106 1.6 3.2 0.00 0.00 0.00 78 1015.8
20260507212004 11 116 0.0 6.4 0.00 0.00 0.00 78 1015.8
20260507211004 11 140 1.6 11.3 0.00 0.00 0.00 78 1015.7
20260507210003 12 130 0.0 9.7 0.00 0.00 0.00 78 1015.6
20260507205003 12 129 3.2 11.3 0.00 0.00 0.00 78 1015.6
20260507203004 12 135 3.2 14.5 0.00 0.00 0.00 77 1015.4
20260507202004 12 117 3.2 12.9 0.00 0.00 0.00 77 1015.3
20260507201003 12 134 1.6 11.3 0.00 0.00 0.00 77 1015.2
20260507200004 12 131 1.6 8.0 0.00 0.00 0.00 76 1015.1
20260507195004 12 128 1.6 12.9 0.00 0.00 0.00 76 1014.9
20260507194003 12 128 3.2 11.3 0.00 0.00 0.00 76 1014.8
20260507193004 12 131 4.8 12.9 0.00 0.00 0.00 76 1014.7
20260507192003 12 122 4.8 12.9 0.00 0.00 0.00 75 1014.6
20260507191004 12 131 4.8 12.9 0.00 0.00 0.00 75 1014.6
20260507190005 12 134 6.4 14.5 0.00 0.00 0.00 74 1014.6
20260507185003 12 141 4.8 16.1 0.00 0.00 0.00 74 1014.5
20260507184004 12 129 4.8 19.3 0.00 0.00 0.00 73 1014.5
20260507183003 13 120 3.2 12.9 0.00 0.00 0.00 72 1014.5
20260507182003 13 123 4.8 12.9 0.00 0.00 0.00 72 1014.4
20260507181004 13 127 4.8 16.1 0.00 0.00 0.00 71 1014.3
20260507174004 13 137 4.8 14.5 0.00 0.00 0.00 67 1014.2
20260507173003 13 131 4.8 14.5 0.00 0.00 0.00 68 1014.1
20260507172003 13 121 4.8 14.5 0.00 0.00 0.00 68 1014.1
20260507171004 14 123 3.2 14.5 0.00 0.00 0.00 67 1014.1
20260507170004 14 126 4.8 12.9 0.00 0.00 0.00 64 1014.1
20260507165004 13 124 6.4 16.1 0.00 0.00 0.00 64 1014.0
20260507164004 14 115 3.2 14.5 0.00 0.00 0.00 63 1014.1
20260507163004 14 144 3.2 11.3 0.00 0.00 0.00 62 1014.1
20260507162004 15 129 3.2 12.9 0.00 0.00 0.00 62 1014.1
20260507161005 15 123 3.2 12.9 0.00 0.00 0.00 63 1014.1
20260507160004 15 153 1.6 9.7 0.00 0.00 0.00 62 1014.1
20260507155004 15 111 3.2 9.7 0.00 0.00 0.00 61 1014.2
20260507154004 15 120 3.2 11.3 0.00 0.00 0.00 62 1014.2
20260507153004 15 123 3.2 12.9 0.00 0.00 0.00 61 1014.2
20260507152004 14 110 4.8 12.9 0.00 0.00 0.00 62 1014.2
20260507151003 14 119 3.2 14.5 0.00 0.00 0.00 62 1014.4
20260507145004 15 126 3.2 12.9 0.00 0.00 0.00 62 1014.3
20260507144004 14 122 3.2 8.0 0.00 0.00 0.00 62 1014.4
20260507143004 14 124 4.8 12.9 0.00 0.00 0.00 62 1014.4
20260507142004 14 104 4.8 14.5 0.00 0.00 0.00 62 1014.4
20260507140004 14 128 3.2 12.9 0.00 0.00 0.00 62 1014.6
20260507134004 14 128 4.8 19.3 0.00 0.00 0.00 64 1014.6
20260507133004 14 117 4.8 17.7 0.00 0.00 0.00 64 1014.7
20260507131004 13 96 3.2 9.7 0.00 0.00 0.00 66 1014.8
20260507130005 13 78 1.6 6.4 0.00 0.00 0.00 67 1014.9
20260507125005 13 86 3.2 6.4 0.00 0.00 0.00 67 1015.0
20260507123003 13 76 3.2 8.0 0.00 0.00 0.00 70 1015.0
20260507122004 12 39 3.2 6.4 0.00 0.00 0.00 69 1015.0
20260507121005 12 62 3.2 6.4 0.00 0.00 0.00 70 1015.1
20260507120004 12 62 3.2 6.4 0.00 0.00 0.00 69 1015.2
20260507114004 12 105 3.2 6.4 0.00 0.00 0.00 70 1015.1
20260507113004 12 333 3.2 9.7 0.00 0.00 0.00 70 1015.2
20260507112004 13 288 1.6 9.7 0.00 0.00 0.00 70 1015.3
20260507111004 12 320 1.6 4.8 0.00 0.00 0.00 70 1015.3
20260507110005 12 316 3.2 8.0 0.00 0.00 0.00 70 1015.4
20260507105003 12 15 4.8 8.0 0.00 0.00 0.00 72 1015.4
20260507103004 12 271 0.0 8.0 0.00 0.00 0.00 72 1015.5
20260507101004 12 205 1.6 4.8 0.00 0.00 0.00 67 1015.4
20260507100003 12 225 1.6 8.0 0.00 0.00 0.00 72 1015.4
20260507094003 12 137 3.2 8.0 0.00 0.00 0.00 72 1015.5
20260507093004 12 127 4.8 12.9 0.00 0.00 0.00 69 1015.4
20260507092004 12 136 3.2 11.3 0.00 0.00 0.00 73 1015.4
20260507091005 11 117 1.6 9.7 0.00 0.00 0.00 77 1015.5
20260507090005 11 190 1.6 8.0 0.00 0.00 0.00 78 1015.4
20260507085003 11 168 0.0 6.4 0.00 0.00 0.00 79 1015.4
20260507084004 11 168 0.0 3.2 0.00 0.00 0.00 79 1015.4
20260507083004 11 168 0.0 6.4 0.00 0.00 0.00 80 1015.4
20260507082004 10 0 0.0 6.4 0.00 0.00 0.00 81 1015.5
20260507081005 10 0 0.0 3.2 0.00 0.00 0.00 81 1015.5
20260507080004 11 0 0.0 6.4 0.00 0.00 0.00 80 1015.4
20260507075006 11 166 1.6 4.8 0.00 0.00 0.00 80 1015.3
20260507074004 11 165 1.6 8.0 0.00 0.00 0.00 80 1015.4
20260507073003 11 139 1.6 8.0 0.00 0.00 0.00 82 1015.3
20260507072003 10 123 3.2 8.0 0.00 0.00 0.00 82 1015.3
20260507071004 10 114 1.6 9.7 0.00 0.00 0.00 83 1015.3
20260507070008 10 117 3.2 11.3 0.00 0.00 0.00 86 1015.3
20260507065003 10 84 1.6 6.4 0.00 0.00 0.00 89 1015.3
20260507064005 8 0 0.0 1.6 0.00 0.00 0.00 93 1015.3
20260507063005 8 0 0.0 1.6 0.00 0.00 0.00 92 1015.2
20260507061003 7 72 0.0 3.2 0.00 0.00 0.00 92 1015.2
20260507060004 7 72 1.6 4.8 0.00 0.00 0.00 92 1015.1
20260507055004 7 0 0.0 3.2 0.00 0.00 0.00 92 1015.0
20260507053004 7 0 0.0 3.2 0.00 0.00 0.00 91 1014.8
20260507052004 7 72 0.0 3.2 0.00 0.00 0.00 92 1014.8
20260507051004 7 72 1.6 4.8 0.00 0.00 0.00 91 1014.8
20260507050003 7 0 0.0 4.8 0.00 0.00 0.00 91 1014.7
20260507045003 7 0 0.0 4.8 0.00 0.00 0.00 91 1014.7
20260507044004 7 72 0.0 4.8 0.00 0.00 0.00 91 1014.6
20260507043004 7 72 3.2 4.8 0.00 0.00 0.00 92 1014.7
20260507042005 7 56 3.2 8.0 0.00 0.00 0.00 92 1014.6
20260507040004 7 349 0.0 4.8 0.00 0.00 0.00 92 1014.6
20260507035003 7 349 0.0 3.2 0.00 0.00 0.00 92 1014.6
20260507034003 7 350 1.6 3.2 0.00 0.00 0.00 92 1014.5
20260507033004 7 349 1.6 6.4 0.00 0.00 0.00 92 1014.5
20260507031004 7 346 1.6 4.8 0.00 0.00 0.00 92 1014.5
20260507030003 6 346 1.6 4.8 0.00 0.00 0.00 92 1014.6
20260507025004 6 346 0.0 4.8 0.00 0.00 0.00 92 1014.6
20260507024005 6 346 1.6 6.4 0.00 0.00 0.00 92 1014.6
20260507023005 6 354 3.2 6.4 0.00 0.00 0.00 92 1014.6
20260507022004 6 1 3.2 6.4 0.00 0.00 0.00 91 1014.5
20260507021004 7 5 1.6 6.4 0.00 0.00 0.00 91 1014.5
20260507020004 7 13 0.0 6.4 0.00 0.00 0.00 91 1014.4
20260507015004 7 25 0.0 3.2 0.00 0.00 0.00 91 1014.3
20260507014005 7 25 1.6 4.8 0.00 0.00 0.00 91 1014.3
20260507013004 7 25 0.0 4.8 0.00 0.00 0.00 91 1014.3
20260507012004 7 25 1.6 3.2 0.00 0.00 0.00 91 1014.3
20260507011004 7 25 1.6 4.8 0.00 0.00 0.00 91 1014.3
20260507010004 7 25 1.6 6.4 0.00 0.00 0.00 91 1014.2
20260507003004 7 15 1.6 6.4 0.00 0.00 0.00 91 1014.4
20260507002004 7 13 1.6 4.8 0.00 0.00 0.00 91 1014.5
20260507001005 7 15 1.6 6.4 0.00 0.00 0.00 91 1014.5
20260507000005 7 355 1.6 8.0 0.00 0.00 0.00 91 1014.5
20260506235005 7 354 1.6 6.4 0.00 0.00 0.00 90 1014.4
20260506234004 7 355 1.6 6.4 0.00 0.00 0.00 90 1014.3
20260506233004 7 355 1.6 4.8 0.00 0.00 0.00 89 1014.2
20260506230004 8 354 3.2 8.0 0.00 0.00 0.00 88 1014.2
20260506225004 8 5 1.6 6.4 0.00 0.00 0.00 88 1014.1